This demonstration page uses our WeatherBlox Daily Observations layout. Learn more.

39.29038, -76.61219

Hourly Observations for December 3, 2017

Temp ( °F °C ) Dew Point ( °F °C ) Humidity (%) Winds ( mph kmh ) Pressure ( in mb ) Visibility ( mi km ) Precip ( " mm )
12:54 am 00:54 undefined 43 6.1 37 2.8 80 80 undefined N/A 30.15 1021 N/A 0 0
1:54 am 01:54 undefined 42 5.6 36 2.2 79 79 undefined N/A 30.18 1022 N/A 0 0
2:54 am 02:54 undefined 44 6.7 38 3.3 79 79 undefined N/A 30.18 1022 N/A 0 0
3:54 am 03:54 undefined 44 6.7 38 3.3 79 79 undefined N/A 30.15 1021 N/A 0 0
4:54 am 04:54 undefined 44 6.7 37 2.8 76 76 undefined N/A 30.18 1022 N/A 0 0
5:54 am 05:54 undefined 44 6.7 38 3.3 79 79 undefined N/A 30.15 1021 N/A 0 0
6:54 am 06:54 undefined 44 6.7 39 3.9 83 83 undefined N/A 30.18 1022 N/A 0 0
7:54 am 07:54 undefined 44 6.7 41 5 89 89 undefined N/A 30.18 1022 N/A 0.02 0.508
8:54 am 08:54 undefined 45 7.2 42 5.6 90 90 undefined N/A 30.18 1022 N/A 0 0
9:54 am 09:54 undefined 47 8.3 43 6.1 86 86 undefined N/A 30.21 1023 N/A 0 0
10:54 am 10:54 undefined 49 9.4 42 5.6 77 77 undefined N/A 30.21 1023 N/A 0 0
11:54 am 11:54 undefined 54 12.2 43 6.1 67 67 undefined N/A 30.18 1022 N/A 0 0
12:54 pm 12:54 undefined 55 12.8 40 4.4 57 57 undefined N/A 30.15 1021 N/A 0 0
1:54 pm 13:54 undefined 56 13.3 39 3.9 53 53 undefined N/A 30.15 1021 N/A 0 0
2:54 pm 14:54 undefined 56 13.3 31 -0.6 39 39 undefined N/A 30.18 1022 N/A 0 0
3:54 pm 15:54 undefined 55 12.8 31 -0.6 40 40 undefined N/A 30.18 1022 N/A 0 0
4:54 pm 16:54 undefined 54 12.2 33 0.6 45 45 undefined N/A 30.21 1023 N/A 0 0
5:54 pm 17:54 undefined 53 11.7 34 1.1 48 48 undefined N/A 30.21 1023 N/A 0 0
6:54 pm 18:54 undefined 51 10.6 34 1.1 52 52 undefined N/A 30.24 1024 N/A 0 0
7:54 pm 19:54 undefined 49 9.4 36 2.2 61 61 undefined N/A 30.24 1024 N/A 0 0
8:54 pm 20:54 undefined 47 8.3 36 2.2 66 66 undefined N/A 30.27 1025 N/A 0 0
9:54 pm 21:54 undefined 45 7.2 36 2.2 71 71 undefined N/A 30.27 1025 N/A 0 0
10:54 pm 22:54 undefined 44 6.7 36 2.2 73 73 undefined N/A 30.3 1026 N/A 0 0
11:54 pm 23:54 undefined 43 6.1 36 2.2 76 76 undefined N/A 30.3 1026 N/A 0 0

Powered by AerisWeather